Location: Cardiff
(53.7833°N, 113.6000°W)
Time: 21:56:30
(UTC+00:00)

Oscar 19 - Pass Details

Date: 05 December 2023
Orbit: 771 x 789 km, 98.9° (Epoch: 04 March)

Event Time Altitude Azimuth Distance (km) Brightness Sun altitude
Rises 11:58:55 0° 19° (NNE) 3,273 14.1 -30.5°
Reaches altitude 10° 12:01:20 10° 26° (NNE) 2,343 13.4 -30.1°
Maximum altitude 12:06:18 46° 99° (E) 1,048 11.6 -29.4°
Drops below altitude 10° 12:11:15 10° 173° (S) 2,338 13.2 -28.7°
Sets 12:13:40 0° 179° (S) 3,265 13.9 -28.3°
